Spencer, IA

3:37 AM CST on January 23, 2017 (GMT -0600)
Spencer Municipal

Weather History for KSPW - January, 2013

Change the Weather History Date:

Wednesday, January 16, 2013

  Actual Average Record
Temperature  
Mean Temperature 30 °F -  
Max Temperature 46 °F 26 °F 46 °F (1974)
Min Temperature 12 °F 6 °F -26 °F (1977)
Degree Days  
Heating Degree Days 34    
Moisture  
Dew Point 22 °F    
Average Humidity 73    
Maximum Humidity 87    
Minimum Humidity 58    
Precipitation  
Precipitation 0.00 in - - ()
Sea Level Pressure  
Sea Level Pressure 29.95 in    
Wind  
Wind Speed 17 mph (WNW)    
Max Wind Speed 22 mph    
Max Gust Speed 33 mph    
Visibility 10 miles    
Events      
Averages and records for this station are not official NWS values.
T = Trace of Precipitation, MM = Missing Value Source: NWS Daily Summary

Daily Weather History Graph

Daily Weather History Graph

Search for Another Location

Airport or City:

Trip Planner

Search our weather history database for the weather conditions in past years. The results will help you decide how hot, cold, wet, or windy it might be!

Date:

Astronomy

Jan. 16, 2013 Rise Set
Actual Time 7:49 AM CST 5:12 PM CST
Civil Twilight 7:17 AM CST 5:44 PM CST
Nautical Twilight 6:42 AM CST 6:19 PM CST
Astronomical Twilight 6:08 AM CST 6:53 PM CST
Moon 10:15 AM CST (1/16) 11:16 PM CST (1/16)
Length of Visible Light 10h 26m
Length of Day
9h 23m
Waxing Crescent, 28% of the Moon is Illuminated
Jan 16
Waxing Crescent
Jan 18
First Quarter
Jan 26
Full
Feb 3
Last Quarter
Feb 10
New

Hourly Weather History & Observations

Time (CST) Temp. Windchill Dew Point Humidity Pressure Visibility Wind Dir Wind Speed Gust Speed Precip Events Conditions
12:53 AM 23.0 °F 8.7 °F 14.0 °F 68% 29.91 in 10.0 mi SW 18.4 mph 25.3 mph N/A   Clear
2:53 AM 24.1 °F 11.0 °F 15.1 °F 69% 29.86 in 10.0 mi SW 16.1 mph - N/A   Overcast
3:28 AM 24.8 °F 12.4 °F 15.8 °F 69% 29.80 in 10.0 mi SW 15.0 mph - N/A   Overcast
3:53 AM 25.0 °F 12.2 °F 16.0 °F 69% 29.85 in 10.0 mi SW 16.1 mph - N/A   Overcast
4:46 AM 26.6 °F 14.7 °F 17.6 °F 69% 29.78 in 10.0 mi SW 15.0 mph - N/A   Overcast
4:53 AM 26.1 °F 13.6 °F 18.0 °F 71% 29.83 in 10.0 mi SW 16.1 mph - N/A   Overcast
5:25 AM 26.6 °F 14.7 °F 19.4 °F 74% 29.77 in 10.0 mi SW 15.0 mph - N/A   Overcast
5:53 AM 27.0 °F 14.3 °F 19.9 °F 75% 29.82 in 10.0 mi SW 17.3 mph - N/A   Overcast
6:24 AM 26.6 °F 14.3 °F 21.2 °F 80% 29.77 in 10.0 mi WSW 16.1 mph - N/A   Overcast
6:40 AM 26.6 °F 14.3 °F 21.2 °F 80% 29.78 in 10.0 mi WSW 16.1 mph - N/A   Overcast
6:53 AM 28.0 °F 15.3 °F 23.0 °F 81% 29.83 in 10.0 mi WSW 18.4 mph - N/A   Overcast
7:20 AM 28.4 °F 15.8 °F 23.0 °F 80% 29.79 in 10.0 mi WSW 18.4 mph - N/A   Overcast
7:53 AM 27.0 °F 15.2 °F 23.0 °F 85% 29.86 in 10.0 mi WSW 15.0 mph - N/A   Scattered Clouds
8:53 AM 30.0 °F 19.1 °F 25.0 °F 82% 29.88 in 10.0 mi WSW 15.0 mph - N/A   Scattered Clouds
9:53 AM 36.0 °F 26.0 °F 28.9 °F 76% 29.89 in 10.0 mi West 17.3 mph - N/A   Clear
10:53 AM 39.9 °F 31.1 °F 30.9 °F 70% 29.90 in 10.0 mi WNW 17.3 mph - N/A   Mostly Cloudy
11:53 AM 41.0 °F 32.2 °F 30.9 °F 67% 29.89 in 10.0 mi West 18.4 mph - N/A   Overcast
12:53 PM 44.1 °F 36.5 °F 33.1 °F 65% 29.87 in 10.0 mi West 17.3 mph 20.7 mph N/A   Mostly Cloudy
1:53 PM 46.0 °F 38.3 °F 33.1 °F 61% 29.87 in 10.0 mi WNW 20.7 mph - N/A   Mostly Cloudy
2:53 PM 45.0 °F 36.6 °F 30.9 °F 58% 29.90 in 10.0 mi WNW 21.9 mph 32.2 mph N/A   Clear
3:53 PM 41.0 °F 31.6 °F 30.9 °F 67% 29.96 in 10.0 mi NW 20.7 mph 33.4 mph N/A   Mostly Cloudy
4:42 PM 33.8 °F 23.2 °F 28.4 °F 81% 29.97 in 10.0 mi North 17.3 mph 25.3 mph N/A   Overcast
4:53 PM 33.1 °F 22.2 °F 28.0 °F 82% 30.04 in 10.0 mi North 17.3 mph 24.2 mph N/A   Overcast
5:07 PM 32.0 °F 22.1 °F 28.4 °F 87% 30.01 in 10.0 mi North 13.8 mph - N/A   Overcast
5:53 PM 30.0 °F 18.7 °F 26.1 °F 85% 30.08 in 10.0 mi North 16.1 mph - N/A   Overcast
6:27 PM 28.4 °F 16.2 °F 23.0 °F 80% 30.06 in 10.0 mi North 17.3 mph - N/A   Overcast
6:53 PM 28.0 °F 15.3 °F 21.0 °F 75% 30.14 in 10.0 mi NNW 18.4 mph 23.0 mph N/A   Scattered Clouds
7:53 PM 25.0 °F 13.6 °F 19.0 °F 78% 30.19 in 10.0 mi NNW 12.7 mph - N/A   Clear
8:53 PM 19.9 °F 5.2 °F 10.0 °F 65% 30.23 in 10.0 mi North 17.3 mph - N/A   Clear
9:53 PM 18.0 °F 4.2 °F 6.1 °F 60% 30.26 in 10.0 mi NNW 13.8 mph - N/A   Clear
10:53 PM 15.1 °F 6.4 °F 7.0 °F 70% 30.27 in 10.0 mi NNW 5.8 mph - N/A   Clear
11:53 PM 12.9 °F -0.9 °F 3.9 °F 67% 30.30 in 10.0 mi NNW 11.5 mph - N/A   Clear